NOAA 16 DEB, 41715

Orbit data source: Space-Track

NOAA 16 DEB, 41715 is space debris in SSO originally from a launch on Thu, 21 Sep 2000 UTC launched from the Air Force Western Test Range (AFWTR). Debris objects in space refer to the collection of defunct objects orbiting the Earth. Examples of debris include non-operational satellites, rocket bodies, and fragments generated from explosions, collisions, or faulty payload assembly.

Loading next visibility...
Identifier
41715, 2000-055PV
Orbit
SSO
Last TLE update
4 days ago
Origin
Manufacturer
Unknown
Mission
Spacecraft
Bus & Motor
Unknown
Mass
Unknown
Launch date (UTC)
2000-09-21 (25 years ago)
Launch vehicle
Unknown
Launch site
Air Force Western Test Range (AFWTR)
Object type
Payload
Rocket body
Debris
Shape & HBR
Unknown
Radar Cross Section
Small (<0.1 m²)

Expand to show TLE details & history

TLE from 4 days ago
0 NOAA 16 DEB
1 41715U 00055PV  25195.93335576  .00002834  00000-0  11305-2 0  9990
2 41715  98.6518 238.7902 0009755 226.9961 133.0404 14.29284523478317
Epoch: 2025-07-14T22:24Z
TLE epoch observation values (Epoch: 2025-07-14T22:24:01.937Z)
Latitude
-0.00003°
Longitude
-30.25298°
Altitude
801.832 km
Speed
7.45 km/s
True Right ascension
15h 55m 09s
True Declination
0° 00' 00"
Sunlit
Object was in full shadow at epoch
Visualization orbit readout
Latitude
-77.94793°
Longitude
18.90662°
Altitude
818.666 km
Speed
7.445 km/s
Apparent Right ascension
23h 13m 29s
Apparent Declination
-63° 45' 54"
Sunlit
Object is in full shadow
Visualization observer readout
Local Sidereal Time
12:15:33
Azimuth
164.081° S
Elevation
-64.456°
Doppler factor
1
Orbital elements
Apogee altitude
798.261 km
Perigee altitude
784.273 km
Semi-major axis
7,169.404 km
Eccentricity
0.00098
Inclination
98.6518°
RAAN
238.7902°
Arg. of periapsis
226.9961°
True anomaly
133.12203°
Mean anomaly
133.0404°
Eccentric anomaly
133.08122°
Mean motion
3.57535 °/min
Orbital period
100.69 mins
BSTAR
0.0011305
Loading maneuver chart data...
Loading SW <> Apogee altitude chart data...
Loading historical data...
Loading historical data...
Loading historical data...
Loading historical data...
Loading historical data...
Loading historical data...
Loading historical data...
|